WML52 MYAM-KSUA

Flight info

Callsign WML52
Flight time N/A
Altitude 30000
Route SURFN DCT ANGEE
Aircraft C525/L-SDFGRWY/SB1

Departure

Time 2026-04-29 02:31
Airport Leonard M. Thompson International Airport (MYAM)

Arrival

Time N/A
Airport Witham Field (KSUA)
Time Latitude Longitude Altitude Speed Heading
2026-04-29 02:23 26.51312 -77.08645 11 ft 0 kts 89°
2026-04-29 02:27 26.51307 -77.08630 11 ft 6 kts 112°
2026-04-29 02:27 26.51303 -77.08540 12 ft 16 kts 85°
2026-04-29 02:27 26.51267 -77.08432 12 ft 14 kts 151°
2026-04-29 02:27 26.51172 -77.08421 12 ft 13 kts 179°
2026-04-29 02:28 26.51141 -77.08352 13 ft 14 kts 88°
2026-04-29 02:28 26.51147 -77.08189 13 ft 26 kts 88°
2026-04-29 02:28 26.51152 -77.07990 14 ft 23 kts 89°
2026-04-29 02:28 26.51156 -77.07815 14 ft 20 kts 87°
2026-04-29 02:29 26.51160 -77.07667 14 ft 14 kts 91°
2026-04-29 02:29 26.51096 -77.07632 14 ft 13 kts 178°
2026-04-29 02:29 26.51035 -77.07655 14 ft 0 kts 270°
2026-04-29 02:30 26.51035 -77.07667 14 ft 15 kts 270°
2026-04-29 02:30 26.51025 -77.08088 14 ft 90 kts 268°
2026-04-29 02:30 26.50996 -77.09004 102 ft 135 kts 268°
2026-04-29 02:30 26.50941 -77.10080 584 ft 143 kts 266°
2026-04-29 02:31 26.51062 -77.11291 995 ft 167 kts 288°
2026-04-29 02:31 26.51453 -77.12560 1681 ft 184 kts 290°
2026-04-29 02:31 26.51825 -77.13934 2552 ft 190 kts 289°
2026-04-29 02:31 26.52278 -77.15490 3168 ft 215 kts 290°
2026-04-29 02:32 26.52749 -77.17085 4128 ft 220 kts 290°
2026-04-29 02:32 26.53222 -77.18704 5092 ft 223 kts 289°
2026-04-29 02:32 26.53703 -77.20367 6050 ft 224 kts 289°
2026-04-29 02:32 26.54186 -77.22040 6897 ft 229 kts 290°
2026-04-29 02:33 26.54678 -77.23743 7722 ft 234 kts 290°
2026-04-29 02:33 26.55178 -77.25481 8537 ft 237 kts 290°
2026-04-29 02:33 26.55686 -77.27241 9280 ft 243 kts 291°
2026-04-29 02:33 26.56207 -77.29052 10077 ft 245 kts 291°
2026-04-29 02:34 26.56719 -77.30835 10874 ft 245 kts 291°
2026-04-29 02:34 26.57242 -77.32653 11630 ft 246 kts 291°
2026-04-29 02:34 26.57763 -77.34470 12357 ft 247 kts 292°
2026-04-29 02:34 26.58282 -77.36278 13044 ft 248 kts 292°
2026-04-29 02:35 26.58809 -77.38116 13726 ft 249 kts 292°
2026-04-29 02:35 26.59335 -77.39950 14368 ft 251 kts 292°
2026-04-29 02:35 26.59869 -77.41811 15006 ft 252 kts 292°
2026-04-29 02:35 26.60405 -77.43681 15595 ft 255 kts 292°
2026-04-29 02:36 26.60960 -77.45608 15924 ft 269 kts 292°
2026-04-29 02:36 26.61559 -77.47684 15990 ft 291 kts 292°
2026-04-29 02:36 26.62202 -77.49919 16000 ft 312 kts 291°
2026-04-29 02:36 26.62885 -77.52308 15997 ft 330 kts 291°
2026-04-29 02:37 26.63599 -77.54810 15993 ft 344 kts 291°
2026-04-29 02:37 26.64335 -77.57395 15992 ft 356 kts 291°
2026-04-29 02:37 26.65101 -77.60088 15989 ft 366 kts 291°
2026-04-29 02:37 26.65876 -77.62810 15988 ft 373 kts 291°
2026-04-29 02:38 26.66655 -77.65561 15969 ft 361 kts 290°
2026-04-29 02:38 26.67407 -77.68215 15970 ft 347 kts 291°
2026-04-29 02:38 26.68114 -77.70717 15967 ft 336 kts 290°
2026-04-29 02:38 26.68824 -77.73226 15975 ft 332 kts 291°
2026-04-29 02:39 26.69524 -77.75689 15976 ft 329 kts 291°
2026-04-29 02:39 26.70211 -77.78104 15978 ft 327 kts 291°
2026-04-29 02:39 26.70906 -77.80545 15984 ft 329 kts 291°
2026-04-29 02:39 26.71604 -77.82994 15983 ft 331 kts 291°
2026-04-29 02:40 26.72310 -77.85480 15984 ft 336 kts 291°
2026-04-29 02:40 26.73019 -77.87980 15986 ft 340 kts 291°
2026-04-29 02:40 26.73743 -77.90537 15984 ft 344 kts 291°
2026-04-29 02:40 26.74463 -77.93090 15983 ft 346 kts 291°
2026-04-29 02:41 26.75192 -77.95676 15980 ft 349 kts 291°
2026-04-29 02:41 26.75921 -77.98262 15981 ft 350 kts 291°
2026-04-29 02:41 26.76651 -78.00855 15984 ft 350 kts 290°
2026-04-29 02:41 26.77374 -78.03429 15979 ft 349 kts 291°
2026-04-29 02:42 26.78114 -78.06061 15979 ft 347 kts 291°
2026-04-29 02:42 26.78839 -78.08642 15979 ft 346 kts 291°
2026-04-29 02:42 26.79569 -78.11240 15979 ft 345 kts 291°
2026-04-29 02:42 26.80285 -78.13788 15978 ft 345 kts 291°
2026-04-29 02:43 26.81011 -78.16376 15978 ft 344 kts 291°
2026-04-29 02:43 26.81731 -78.18941 15980 ft 344 kts 291°
2026-04-29 02:43 26.82445 -78.21493 15980 ft 343 kts 290°
2026-04-29 02:43 26.83125 -78.24104 15979 ft 344 kts 288°
2026-04-29 02:44 26.83664 -78.26739 15979 ft 345 kts 285°
2026-04-29 02:44 26.84119 -78.29387 15980 ft 345 kts 284°
2026-04-29 02:44 26.84543 -78.32037 15980 ft 345 kts 283°
2026-04-29 02:44 26.84982 -78.34744 15980 ft 345 kts 284°
2026-04-29 02:45 26.85440 -78.37442 15982 ft 345 kts 285°
2026-04-29 02:45 26.85917 -78.40128 15980 ft 344 kts 285°
2026-04-29 02:45 26.86396 -78.42740 15979 ft 344 kts 285°
2026-04-29 02:45 26.86890 -78.45401 15981 ft 344 kts 285°
2026-04-29 02:46 26.87376 -78.48006 15981 ft 344 kts 285°
2026-04-29 02:46 26.87865 -78.50639 15979 ft 345 kts 285°
2026-04-29 02:46 26.88352 -78.53276 15981 ft 345 kts 285°
2026-04-29 02:46 26.88834 -78.55901 15979 ft 345 kts 285°
2026-04-29 02:47 26.89314 -78.58533 15980 ft 345 kts 285°
2026-04-29 02:47 26.89789 -78.61138 15981 ft 344 kts 285°
2026-04-29 02:47 26.90267 -78.63763 15982 ft 344 kts 285°
2026-04-29 02:47 26.90748 -78.66409 15979 ft 344 kts 285°
2026-04-29 02:48 26.91223 -78.69025 15979 ft 344 kts 285°
2026-04-29 02:48 26.91696 -78.71629 15979 ft 344 kts 285°
2026-04-29 02:48 26.92176 -78.74270 15979 ft 344 kts 285°
2026-04-29 02:48 26.92655 -78.76916 15979 ft 344 kts 285°
2026-04-29 02:49 26.93133 -78.79552 15978 ft 344 kts 284°
2026-04-29 02:49 26.93576 -78.82002 15979 ft 344 kts 285°
2026-04-29 02:49 26.94054 -78.84644 15982 ft 344 kts 284°
2026-04-29 02:49 26.94529 -78.87279 15982 ft 344 kts 284°
2026-04-29 02:50 26.95010 -78.89945 15978 ft 345 kts 284°
2026-04-29 02:50 26.95484 -78.92580 15979 ft 345 kts 285°
2026-04-29 02:50 26.95962 -78.95235 15981 ft 345 kts 284°
2026-04-29 02:50 26.96413 -78.97742 15980 ft 345 kts 284°
2026-04-29 02:51 26.96852 -79.00187 15979 ft 345 kts 285°
2026-04-29 02:51 26.97332 -79.02870 15980 ft 344 kts 285°
2026-04-29 02:51 26.97809 -79.05528 15979 ft 344 kts 285°
2026-04-29 02:51 26.98283 -79.08181 15978 ft 344 kts 285°
2026-04-29 02:52 26.98749 -79.10791 15982 ft 344 kts 285°
2026-04-29 02:52 26.99222 -79.13440 15977 ft 344 kts 284°
2026-04-29 02:52 26.99694 -79.16084 15981 ft 344 kts 284°
2026-04-29 02:52 27.00172 -79.18766 15984 ft 344 kts 284°
2026-04-29 02:53 27.00640 -79.21398 15979 ft 344 kts 284°
2026-04-29 02:53 27.01096 -79.23965 15981 ft 345 kts 284°
2026-04-29 02:53 27.01568 -79.26627 15977 ft 345 kts 285°
2026-04-29 02:53 27.01994 -79.29032 15982 ft 344 kts 284°
2026-04-29 02:54 27.02256 -79.30512 15977 ft 345 kts 284°
2026-04-29 02:54 27.02728 -79.33176 15978 ft 344 kts 285°
2026-04-29 02:54 27.03198 -79.35838 15979 ft 344 kts 285°
2026-04-29 02:54 27.03668 -79.38500 15976 ft 344 kts 285°
2026-04-29 02:55 27.04128 -79.41107 15983 ft 344 kts 285°
2026-04-29 02:55 27.04594 -79.43750 15978 ft 344 kts 285°
2026-04-29 02:55 27.05060 -79.46398 15980 ft 344 kts 285°
2026-04-29 02:55 27.05524 -79.49036 15980 ft 344 kts 285°
2026-04-29 02:56 27.05994 -79.51714 15856 ft 344 kts 284°
2026-04-29 02:56 27.06449 -79.54317 15339 ft 337 kts 285°
2026-04-29 02:56 27.06897 -79.56888 14846 ft 331 kts 285°
2026-04-29 02:56 27.07332 -79.59383 14363 ft 326 kts 285°
2026-04-29 02:57 27.07772 -79.61904 13875 ft 322 kts 285°
2026-04-29 02:57 27.08200 -79.64354 13392 ft 319 kts 285°
2026-04-29 02:57 27.08633 -79.66821 12899 ft 317 kts 285°
2026-04-29 02:57 27.09063 -79.69247 12410 ft 315 kts 285°
2026-04-29 02:58 27.09495 -79.71719 11911 ft 316 kts 285°
2026-04-29 02:58 27.09922 -79.74163 11437 ft 322 kts 284°
2026-04-29 02:58 27.10361 -79.76679 10956 ft 326 kts 284°
2026-04-29 02:58 27.10771 -79.79047 10504 ft 329 kts 284°
2026-04-29 02:59 27.11212 -79.81596 10019 ft 332 kts 284°
2026-04-29 02:59 27.11656 -79.84164 9534 ft 329 kts 284°
2026-04-29 02:59 27.12086 -79.86675 9043 ft 322 kts 284°
2026-04-29 02:59 27.12510 -79.89137 8556 ft 317 kts 284°
2026-04-29 03:00 27.12888 -79.91328 8114 ft 313 kts 283°
2026-04-29 03:00 27.13258 -79.93481 7680 ft 311 kts 283°
2026-04-29 03:00 27.13673 -79.95885 7191 ft 309 kts 283°
2026-04-29 03:00 27.14082 -79.98257 6703 ft 307 kts 283°
2026-04-29 03:01 27.14488 -80.00622 6217 ft 305 kts 282°
2026-04-29 03:01 27.14886 -80.02937 5740 ft 304 kts 282°
2026-04-29 03:01 27.15296 -80.05315 5245 ft 302 kts 282°
2026-04-29 03:01 27.15693 -80.07643 4754 ft 301 kts 281°
2026-04-29 03:02 27.16086 -80.09956 4271 ft 300 kts 281°
2026-04-29 03:02 27.16479 -80.12260 3775 ft 298 kts 281°
2026-04-29 03:02 27.16869 -80.14529 3157 ft 288 kts 282°
2026-04-29 03:02 27.17248 -80.16743 2527 ft 278 kts 281°
2026-04-29 03:03 27.17612 -80.18880 1908 ft 271 kts 282°
2026-04-29 03:03 27.18087 -80.20882 1388 ft 248 kts 297°
2026-04-29 03:03 27.19001 -80.22417 1076 ft 208 kts 310°
2026-04-29 03:03 27.19867 -80.23506 938 ft 161 kts 313°
2026-04-29 03:04 27.19935 -80.24599 817 ft 130 kts 228°
2026-04-29 03:04 27.19200 -80.24871 591 ft 111 kts 158°
2026-04-29 03:04 27.18621 -80.24365 357 ft 99 kts 114°
2026-04-29 03:04 27.18374 -80.23634 139 ft 96 kts 112°
2026-04-29 03:05 27.18148 -80.22955 24 ft 86 kts 107°
2026-04-29 03:05 27.18013 -80.22548 18 ft 68 kts 111°
2026-04-29 03:05 27.17962 -80.22395 19 ft 58 kts 111°